[[{"header":{"parameterUnit":"m.s-1","parameterCategory":1,"la1":30.2991,"la2":30.254,"lo1":-89.0895,"lo2":-89.0444,"dy":0.0017,"dx":0.0017,"nx":28,"ny":28,"refTime":"2024-03-14T21:00:00:Z","depth":0,"parameterNumber":2,"parameterNumberName":"U-component_of_WINDS"},"data":[0,0,0,0,0,0,0,0,0,0,0,0,0,0,0,0,0,0,0,0,0,0,0,0,0,0,0,0,0,0,0,0,0,0,0,0,0,0,0,0,0,0,0,0,0,0,0,0,0,0,0,0,0,0,0,0,0,0,0.1189,0.1191,0,0.1318,0.132,0.1321,0.1375,0.1375,0.1375,0.1374,0.151,0.1513,0.1517,0,0,0,0,0,0,0,0,0,0,0,0,0,0.0991,0.0995,0.1189,0.1191,0.1193,0.1318,0.132,0.1322,0.1375,0.1375,0.1375,0.1374,0.1508,0.1513,0.1518,0,0,0,0,0,0,0,0,0,0,0,0,0,0.1095,0.0996,0.1189,0.1234,0.124,0.1318,0.132,0.1322,0.1375,0.1375,0.1374,0.1374,0.1507,0.1513,0.1518,0.1562,0,0,0.1536,0.1538,0,0,0,0,0,0,0,0,0.1089,0.1102,0.1226,0.1231,0.1237,0.133,0.13,0.1403,0.1375,0.1324,0.1374,0.1374,0.1451,0.1461,0.1486,0.1568,0.1574,0.1536,0.154,0.1542,0.1544,0,0,0,0,0,0,0,0.1081,0.1097,0.124,0.1228,0.1235,0.1249,0.1263,0.132,0.1388,0.1328,0.1333,0.1347,0.1454,0.148,0.149,0.1576,0.1536,0.1541,0.1545,0.1547,0.1699,0.17,0,0,0,0,0,0,0.1067,0.109,0.1236,0.1244,0.116,0.1253,0.1269,0.1301,0.1387,0.14,0.1347,0.1349,0.1471,0.1483,0.1495,0.1551,0.1542,0.1548,0.1551,0.1699,0.1699,0.17,0,0,0,0,0,0,0.1062,0.1079,0.1231,0.1168,0.1189,0.1256,0.1292,0.1304,0.133,0.1402,0.1414,0.1362,0.1471,0.1487,0.1544,0.1556,0.155,0.1556,0.1698,0.1699,0.17,0.1663,0,0,0,0,0,0,0.1056,0.1077,0.1094,0.1168,0.1192,0.1278,0.1293,0.1306,0.134,0.1343,0.1419,0.1431,0.1472,0.1535,0.155,0.1564,0.156,0.1697,0.1698,0.1699,0.1664,0.1663,0.1662,0,0,0,0,0,0.1049,0.108,0.1095,0.1112,0.1214,0.1279,0.1292,0.1338,0.1341,0.1358,0.1404,0.1429,0.1552,0.1541,0.1558,0.1574,0.1697,0.1698,0.1699,0.1664,0.1663,0.1662,0,0,0,0,0,0,0.1007,0.109,0.1108,0.1163,0.1213,0.1287,0.1311,0.1335,0.1386,0.1387,0.1443,0.1459,0.1512,0.1549,0.1535,0.162,0.1626,0.1631,0.1594,0.1594,0.1593,0.1583,0.1565,0,0,0,0,0,0.1003,0.1048,0.1119,0.1161,0.1185,0.1243,0.1273,0.1304,0.1358,0.138,0.143,0.1482,0.1533,0.1565,0.1616,0.1669,0.1686,0.1688,0.1687,0.1686,0.169,0.172,0.1722,0.1704,0.1704,0.1704,0,0,0.0998,0.1049,0.1074,0.1154,0.1196,0.1241,0.1261,0.1308,0.1342,0.1387,0.1444,0.1482,0.1545,0.16,0.1627,0.1632,0.1698,0.1688,0.1687,0.1691,0.1722,0.1723,0.1725,0.1705,0.1705,0.1705,0,0,0.1011,0.1054,0.1094,0.1135,0.1198,0.1236,0.1245,0.1316,0.1342,0.14,0.1434,0.1476,0.1562,0.1605,0.1638,0.1665,0.1689,0.168,0.1675,0.1704,0.1705,0.1707,0.1716,0.1719,0.1683,0.1683,0.1683,0,0.0997,0.1065,0.1111,0.1156,0.119,0.1231,0.1271,0.1309,0.1386,0.1409,0.1413,0.1521,0.1566,0.1631,0.1637,0.1663,0.1675,0.1672,0.1701,0.1703,0.1705,0.1715,0.1718,0.1681,0.1681,0.1682,0.1682,0,0.1044,0.1091,0.1115,0.1186,0.1223,0.1265,0.1318,0.135,0.1376,0.1414,0.1472,0.1527,0.1589,0.1607,0.1634,0.1676,0.1677,0.169,0.1698,0.1705,0.1715,0.1719,0.1679,0.168,0.168,0.168,0,0,0.1036,0.113,0.1138,0.117,0.1242,0.128,0.1323,0.1382,0.1408,0.1459,0.1498,0.1569,0.1581,0.1618,0.1651,0.1676,0.1693,0.1687,0.1689,0.1686,0.1741,0.1731,0.1734,0.1709,0.171,0.171,0.1736,0,0.1058,0.1138,0.1179,0.1241,0.1285,0.1323,0.1362,0.141,0.1446,0.1489,0.1529,0.1578,0.1591,0.1614,0.164,0.1685,0.1705,0.1684,0.1746,0.1747,0.1729,0.174,0.1729,0.1751,0.174,0.1741,0.1742,0,0.1096,0.1144,0.121,0.1275,0.1295,0.1328,0.1385,0.1425,0.1481,0.1505,0.1545,0.1577,0.1625,0.1628,0.1695,0.1679,0.1707,0.1732,0.1734,0.1743,0.1745,0.1748,0.1759,0.1762,0.1748,0.1748,0.1747,0,0.1082,0.1164,0.1214,0.1241,0.1318,0.134,0.1374,0.1428,0.1461,0.1511,0.1532,0.1587,0.1618,0.166,0.1705,0.1703,0.1767,0.1775,0.179,0.1788,0.1802,0.1801,0.1817,0.1819,0.1819,0.1819,0.1819,0,0.1103,0.1142,0.1209,0.1239,0.1284,0.1331,0.1374,0.1411,0.1459,0.1497,0.1534,0.157,0.1627,0.167,0.1706,0.1756,0.1769,0.1791,0.18,0.1788,0.1785,0.1807,0.1807,0.182,0.182,0.1819,0.1819,0,0.1096,0.1143,0.1199,0.1267,0.1285,0.1315,0.1373,0.1404,0.1441,0.149,0.1504,0.1563,0.1615,0.1664,0.1734,0.1758,0.1808,0.182,0.1789,0.1794,0.1806,0.1804,0.1838,0.1845,0.1841,0.1841,0.1841,0,0.1107,0.1137,0.1208,0.1235,0.1268,0.1312,0.1345,0.1393,0.1425,0.1489,0.1513,0.1567,0.1613,0.1695,0.1745,0.1798,0.1812,0.182,0.182,0.1806,0.1812,0.1809,0.1813,0.1819,0.1819,0.1819,0.1818,0,0.112,0.1141,0.1187,0.1239,0.1277,0.1321,0.1367,0.1388,0.1444,0.1479,0.1532,0.1567,0.1638,0.1691,0.175,0.1785,0.1811,0.1818,0.1824,0.1812,0.1793,0.1803,0.1787,0.1817,0.1817,0.1817,0.1817,0.1817,0.1123,0.1151,0.1205,0.1253,0.1292,0.1333,0.1366,0.1406,0.1451,0.1511,0.1537,0.159,0.1644,0.1725,0.176,0.1802,0.1809,0.1818,0.182,0.1822,0.1819,0.1785,0.1813,0.1814,0.1814,0.1814,0.1814,0,0.1138,0.1174,0.1218,0.128,0.1318,0.1337,0.1388,0.1419,0.1466,0.1513,0.1557,0.1617,0.1669,0.1722,0.1776,0.18,0.1814,0.1813,0.1812,0.182,0.1811,0.18,0.1801,0.1801,0.1801,0.1801,0.1801,0.1801,0.1151,0.1199,0.1226,0.1294,0.1331,0.1382,0.1409,0.1448,0.1485,0.1551,0.1593,0.1627,0.1676,0.1735,0.1783,0.1797,0.1816,0.1812,0.1829,0.182,0.1821,0.1821,0.1811,0.1815,0.1815,0.1835,0.1835,0.1836]},{"header":{"parameterUnit":"m.s-1","parameterCategory":1,"la1":30.2991,"la2":30.254,"lo1":-89.0895,"lo2":-89.0444,"dy":0.0017,"dx":0.0017,"nx":28,"ny":28,"refTime":"2024-03-14T21:00:00:Z","depth":0,"parameterNumber":3,"parameterNumberName":"V-component_of_WINDS"},"data":[0,0,0,0,0,0,0,0,0,0,0,0,0,0,0,0,0,0,0,0,0,0,0,0,0,0,0,0,0,0,0,0,0,0,0,0,0,0,0,0,0,0,0,0,0,0,0,0,0,0,0,0,0,0,0,0,0,0,1.759,1.759,0,1.7573,1.7573,1.7573,1.7569,1.7569,1.7569,1.7569,1.755,1.755,1.7549,0,0,0,0,0,0,0,0,0,0,0,0,0,1.7617,1.7616,1.759,1.759,1.759,1.7573,1.7573,1.7573,1.7569,1.7569,1.7569,1.7569,1.7551,1.755,1.7549,0,0,0,0,0,0,0,0,0,0,0,0,0,1.7603,1.7616,1.759,1.7586,1.7585,1.7573,1.7573,1.7573,1.7569,1.7569,1.7569,1.7569,1.7551,1.755,1.7549,1.754,0,0,1.7546,1.7546,0,0,0,0,0,0,0,0,1.7604,1.7602,1.7587,1.7586,1.7585,1.7573,1.7576,1.7562,1.7569,1.7575,1.7569,1.7569,1.7558,1.7556,1.7553,1.7539,1.7538,1.7546,1.7546,1.7545,1.7545,0,0,0,0,0,0,0,1.7605,1.7603,1.7584,1.7586,1.7586,1.7584,1.7582,1.7573,1.7566,1.7574,1.7574,1.7572,1.7558,1.7554,1.7552,1.7538,1.7546,1.7545,1.7545,1.7545,1.7515,1.7515,0,0,0,0,0,0,1.7607,1.7603,1.7584,1.7583,1.7595,1.7583,1.7581,1.7577,1.7566,1.7564,1.7572,1.7572,1.7555,1.7553,1.7552,1.7539,1.7545,1.7544,1.7544,1.7515,1.7515,1.7515,0,0,0,0,0,0,1.7607,1.7605,1.7585,1.7593,1.759,1.7583,1.7578,1.7577,1.7573,1.7564,1.7562,1.757,1.7555,1.7553,1.7543,1.7539,1.7544,1.7543,1.7515,1.7515,1.7515,1.7516,0,0,0,0,0,0,1.7608,1.7605,1.7602,1.7593,1.759,1.7577,1.7578,1.7576,1.7571,1.7571,1.7561,1.756,1.7555,1.7544,1.7542,1.7538,1.7543,1.7516,1.7515,1.7515,1.7516,1.7515,1.7515,0,0,0,0,0,1.7609,1.7603,1.7602,1.76,1.7586,1.7577,1.7575,1.757,1.7571,1.7568,1.7562,1.756,1.754,1.7543,1.7541,1.7536,1.7516,1.7515,1.7515,1.7516,1.7516,1.7515,0,0,0,0,0,0,1.7612,1.7602,1.7601,1.7592,1.7585,1.7576,1.7572,1.757,1.7562,1.7562,1.7556,1.7554,1.7544,1.7539,1.7543,1.7526,1.7528,1.7527,1.753,1.7529,1.7528,1.753,1.7542,0,0,0,0,0,1.7612,1.7605,1.7597,1.759,1.7586,1.758,1.7575,1.7572,1.7565,1.7562,1.7555,1.7547,1.7539,1.7534,1.7526,1.7515,1.7512,1.7511,1.751,1.751,1.7509,1.7501,1.75,1.7513,1.7513,1.7513,0,0,1.7611,1.7605,1.7601,1.759,1.7585,1.7577,1.7577,1.757,1.7564,1.756,1.755,1.7545,1.7536,1.7525,1.752,1.7521,1.7505,1.7509,1.7509,1.7508,1.7501,1.75,1.7499,1.7512,1.7513,1.7513,0,0,1.7606,1.7601,1.7594,1.7588,1.758,1.7575,1.7573,1.7564,1.7561,1.7551,1.7547,1.754,1.7526,1.7519,1.7514,1.7505,1.7503,1.7503,1.75,1.7493,1.7492,1.7491,1.7486,1.7485,1.7502,1.7502,1.7502,0,1.7606,1.7595,1.7591,1.7583,1.7578,1.7574,1.7567,1.7561,1.755,1.7546,1.7547,1.7529,1.7523,1.751,1.7508,1.7504,1.7501,1.7504,1.7492,1.7491,1.749,1.7486,1.7485,1.7502,1.7502,1.7502,1.7502,0,1.7595,1.7588,1.7583,1.7573,1.7567,1.756,1.7553,1.7548,1.7545,1.754,1.7528,1.7521,1.751,1.7507,1.7504,1.7493,1.7494,1.7494,1.7495,1.7489,1.7485,1.7484,1.7502,1.7502,1.7502,1.7502,0,0,1.7592,1.7579,1.7577,1.7572,1.7561,1.7555,1.7547,1.7537,1.7532,1.7525,1.7517,1.7505,1.7504,1.7498,1.7494,1.7488,1.748,1.7488,1.7488,1.7486,1.7466,1.7466,1.7464,1.7478,1.7478,1.7478,1.7466,0,1.7585,1.7571,1.7566,1.7554,1.7546,1.7542,1.7534,1.7527,1.7522,1.7514,1.7508,1.7499,1.7499,1.7495,1.7489,1.7482,1.7475,1.7483,1.747,1.7469,1.7472,1.7462,1.7462,1.7451,1.7465,1.7464,1.7464,0,1.7575,1.7567,1.7554,1.7544,1.7541,1.7534,1.7524,1.7517,1.7508,1.7504,1.7497,1.7493,1.7483,1.7486,1.7471,1.7476,1.747,1.7466,1.7465,1.7463,1.7466,1.7459,1.7448,1.7446,1.7462,1.7462,1.7462,0,1.7573,1.7559,1.7549,1.7545,1.7533,1.7528,1.7523,1.7514,1.7508,1.7499,1.7495,1.7484,1.7479,1.747,1.7463,1.7466,1.7449,1.7451,1.7445,1.7445,1.7441,1.7441,1.7428,1.7439,1.7439,1.7439,1.7439,0,1.7566,1.7558,1.7548,1.7542,1.7532,1.7526,1.7517,1.7511,1.7503,1.7495,1.749,1.7483,1.7474,1.7465,1.746,1.7448,1.7445,1.7441,1.744,1.7441,1.7442,1.7437,1.7437,1.7438,1.7438,1.7438,1.7438,0,1.7562,1.7555,1.7544,1.7533,1.753,1.7524,1.7514,1.7507,1.7501,1.7491,1.7488,1.7479,1.7468,1.746,1.7446,1.7442,1.7428,1.7428,1.7432,1.7431,1.7425,1.7425,1.7408,1.7404,1.7418,1.7418,1.7417,0,1.7557,1.7551,1.7539,1.7534,1.7528,1.7519,1.7513,1.7506,1.75,1.7488,1.7482,1.7471,1.7461,1.7443,1.7435,1.7423,1.7422,1.7416,1.742,1.7421,1.742,1.742,1.7419,1.7416,1.7416,1.7415,1.7415,0,1.755,1.7546,1.7538,1.7527,1.752,1.7512,1.7503,1.7499,1.749,1.7483,1.7471,1.7464,1.7449,1.7437,1.7425,1.7418,1.7415,1.7414,1.7412,1.7413,1.7415,1.7413,1.7429,1.7415,1.7415,1.7415,1.7415,1.7415,1.7545,1.7538,1.7529,1.7519,1.7512,1.7503,1.7496,1.7489,1.748,1.7467,1.7464,1.7451,1.7441,1.7424,1.7417,1.7406,1.7407,1.7404,1.7403,1.7402,1.7401,1.7418,1.7404,1.7404,1.7404,1.7404,1.7404,0,1.7536,1.7529,1.752,1.7508,1.75,1.7498,1.7488,1.7481,1.7471,1.7461,1.7452,1.7438,1.7426,1.7416,1.7403,1.7397,1.7395,1.7394,1.7394,1.7392,1.7402,1.7405,1.7395,1.7395,1.7395,1.7395,1.7395,1.7395,1.753,1.7519,1.7515,1.7499,1.7492,1.7481,1.7475,1.7467,1.7459,1.7444,1.7434,1.7428,1.7417,1.7404,1.7392,1.739,1.7385,1.7384,1.738,1.739,1.7391,1.7392,1.7395,1.7383,1.7383,1.7371,1.7371,1.737]}]]